Showing default

SJ-21, 49330

Orbit data source: Space-Track

SJ-21, 49330 is a payload satellite owned by SAST (CN) in GEO that was launched on Sun, 24 Oct 2021 UTC via a CHANG ZHENG 3B launch vehicle from the Xichang Space Center, China (XSC). Payload-class satellites include a variety of spacecraft equipped with specific instruments for various scientific and technological missions. These include communications satellites like Starlink; space stations such as the ISS; scientific satellites like the Hubble; Earth observation satellites from companies like Planet Labs, Umbra, and HawkEye 360; GPS; miniature CubeSats for education and research; and military/defense satellites.

Not visible in the next 10 days
Identifier
49330, 2021-094A
Orbit
GEO
Country
Flag of CNCN / PRC
Related business
Manufacturer
SAST?
Mission
Operational Defense Technology
Bus & Motor
SJ21, Unknown motor
Mass
~5,000 kg wet, ~2,500 kg dry
Launch date (UTC)
2021-10-24 (5 years ago)
Launch vehicle
CHANG ZHENG 3B
Launch site
Xichang Space Center, China (XSC)
Object type
Payload
Rocket body
Debris
Shape & HBR
Box + 2 Pan, 15.0 m
Radar Cross Section
34.063 m², Large (>1 m²)

Expand to show TLE details & history
Last TLE update: 8 hours ago

TLE from 8 hours ago
0 SJ-21
1 49330U 21094A   26167.01059859 -.00000350  00000-0  00000-0 0  9993
2 49330   5.1106  61.1895 0049825 168.3107 166.6459  1.00271125  5346
Epoch: 2026-06-16T00:15Z
TLE epoch observation values (Epoch: 2026-06-16T00:15:15.718Z)
Latitude
-2.13766°
Longitude
128.2716°
Altitude
35,991.155 km
Speed
3.06 km/s
True Right ascension
02h 25m 30s
True Declination
-2° 08' 08"
Sunlit
Object was in daylight at epoch
Visualization orbit readout
Latitude
Unknown
Longitude
Unknown
Altitude
Unknown
Speed
Unknown
Apparent Right ascension
Unknown
Apparent Declination
Unknown
Sunlit
N/A
Visualization observer readout
Local Sidereal Time
19:06:57
Azimuth
Unknown
Elevation
Unknown
Doppler factor
Unknown
Orbital elements
Apogee altitude
35,997.93 km
Perigee altitude
35,577.746 km
Semi-major axis
42,165.975 km
Eccentricity
0.00498
Inclination
5.1106°
RAAN
61.1895°
Arg. of periapsis
168.3107°
True anomaly
166.77698°
Mean anomaly
166.6459°
Eccentric anomaly
166.71152°
Mean motion
0.25067 °/min
Orbital period
1,436.16 mins
BSTAR
0
Loading maneuver chart data...
Computing Atmospheric mass density...
Loading historical data...
Loading historical data...
Loading historical data...
Loading historical data...
Loading historical data...
Loading historical data...
Loading historical data...
Other satellites on launch #94 in the year 2021 (2021-10-24 UTC)

Documentation

Showing up to 5 results
|